Regional Weather Roundup
Issued by NWS Mobile, AL

Home | Current Version | Previous Version | Text Only | Print | Product List | Glossary On
Versions: 1 2 3 4 5 6 7 8 9 10 11 12 13 14 15 16 17 18 19 20 21 22 23 24 25 26 27 28 29 30 31 32 33 34 35 36 37 38 39 40 41 42 43 44 45 46 47 48 49 50
000
ASUS44 KMOB 311416
RWRMOB
REGIONAL WEATHER ROUNDUP
NATIONAL WEATHER SERVICE MOBILE AL
900 AM CDT FRI JUL 31 2015

ALZ061>064-311500-
COASTAL ALABAMA


CITY           SKY/WX    TMP DP  RH WIND       PRES   REMARKS
MOBILE REG APT MOSUNNY   80  71  74 N8        29.96R
BROOKLEY FIELD PTSUNNY   81  72  74 N7        29.96R
GULF SHORES    SUNNY     80  75  84 NE5       29.93S

$$

ALZ051>060-311500-
INTERIOR SOUTHWEST AND SOUTH CENTRAL ALABAMA


CITY           SKY/WX    TMP DP  RH WIND       PRES   REMARKS
ANDALUSIA/OPP  MOSUNNY   86  76  71 E8        29.95S HX  96
EVERGREEN      SUNNY     83  71  67 N8        29.95F
FLORALA        PTSUNNY   79  75  87 SE5       29.97R
GREENVILLE     FAIR      83  68  60 NE9       29.95F

$$

FLZ001>006-311500-
WESTERN FLORIDA PANHANDLE


CITY           SKY/WX    TMP DP  RH WIND       PRES   REMARKS
CRESTVIEW      SUNNY     83  76  79 E3        29.95F
DESTIN         PTSUNNY   85  79  82 NE5       29.93S HX  98
DUKE FIELD     PTSUNNY   81  76  84 CALM      29.94S
MARY ESTHER    SUNNY     84  76  79 E6        29.92S
MILTON         PTSUNNY   83  77  82 E7        29.94S
PENSACOLA      MOSUNNY   82  76  81 VRB3      29.93S
NAS PENSACOLA  PTSUNNY   83  75  77 E6        29.92S
VALPARAISO     PTSUNNY   84  78  80 NE2       29.93S HX  95

$$

...MARINE OBSERVATIONS...

STATION/POSITION TIME  SKY/WX   TEMP    WIND        PRES    VSBY
                                AIR SEA DIR/SP/G
                 (UTC)          (F)     (DEG/KT/KT) (MB)    (MI)
PASCAGOULA       1300            79      20/ 11/ 14 1013.6R
PETIT BOIS ISL   1300            80      20/ 12/ 17 1014.1R
E DAUPHIN ISLAND 1400            81      30/ 13/ 15 1013.5R
MIDDLE BAY LIGHT 1300            79      10/ 17     1012.5R
USCG MOBILE BAY  1300            79 84   10/  9/ 13 1012.8R
STATE DOCKS      1300            80 83              1013.6R
MEAHER PARK      1400            80      10/  5     1013.2S
12 S ORANGE BCH  1350            81 85   30/ 10/ 12 1012.5R
WVE H/P(F/S)=  1/ 4

PENSACOLA BAY    1300            81 85   60/  3/  7 1013.6R
64 S DAUPHIN ISL 1350            85 87   20/  6/  8 1013.4R
WVE H/P(F/S)=  2/ 4

67 S FORT MORGAN 1330            85      30/  8     1013.2R
115 SE PENSACOLA 1350            85 86  220/ 14/ 16 1013.5R
WVE H/P(F/S)=  3/ 4

MID GULF/42001   1350            81 84  250/ 10/ 12 1015.5R
WVE H/P(F/S)=  2/ 4

EAST GULF/42003  1350            83 84  230/ 14/ 16 1015.3R
WVE H/P(F/S)=  3/ 5


$$

...NEARBY LOCATIONS

CITY           SKY/WX    TMP DP  RH WIND       PRES   REMARKS
GULFPORT       SUNNY     82  69  64 N9        29.95R
BILOXI         SUNNY     80  71  72 NE9       29.95R
PASCAGOULA     SUNNY     79  72  79 N7        29.95R
HATTIESBURG    SUNNY     79  68  69 N7        30.00R
LAUREL         SUNNY     79 N/A N/A N8        30.01S
MERIDIAN       SUNNY     79  63  57 NE17      30.02S
MERIDIAN NAS   MOSUNNY   77  64  64 N10       30.03S
MONTGOMERY     SUNNY     82  67  60 N8        29.96F
MAXWELL AFB    SUNNY     81  69  66 VRB6      29.95F
TROY           SUNNY     84  71  65 NE8       29.96F
FORT RUCKER    SUNNY     84  75  74 CALM      29.93F
DALEVILLE      MOSUNNY   80  76  88 VRB2      29.94F
DOTHAN         MOSUNNY   83  75  77 SE5       29.98F

$$

...OTHER SURROUNDING LOCATIONS...

CITY           SKY/WX    TMP DP  RH WIND       PRES   REMARKS
BIRMINGHAM     MOSUNNY   78  63  59 N12       30.05F
TUSCALOOSA     SUNNY     80  62  54 NE15      30.02S
COLUMBUS GA    SUNNY     83  68  60 NE3       29.95F
PANAMA CITY    NOT AVBL
TALLAHASSEE    PTSUNNY   86  78  77 VRB3      29.94F HX  98
BATON ROUGE    SUNNY     79  71  76 NE7       29.99S
NEW ORLEANS    PTSUNNY   84  70  62 NE10      29.97R
SLIDELL        SUNNY     81  73  76 N10       29.97R
JACKSON        SUNNY     80  63  55 NE9G20    30.03S
MCCOMB         SUNNY     78  67  68 N6        30.01S

$$

...SURROUNDING MARINE OBSERVATIONS...

STATION/POSITION TIME  SKY/WX   TEMP    WIND        PRES    VSBY
                                AIR SEA DIR/SP/G
                 (UTC)          (F)     (DEG/KT/KT) (MB)    (MI)
WAVELAND         1300            78 85   20/ 10/ 13 1014.6R
PASCAGOULA PORT  1300               84                N/A
GRAND ISLE       1300            83 88   20/  8/ 12 1014.2R
SOUTHWEST PASS   1400            83      20/  9/ 10 1014.2S
PILOT STATION E  1300            83 86  350/ 11/ 14 1014.4R
SHELL BEACH      1300            81 86   20/ 14/ 16 1013.6R
PANAMA CITY      1300            84 85   70/  1/  4 1013.1R
APALACHICOLA     1300            85 87  200/  6/  6 1013.4R
TYNDALL TOWER C  1400            84     220/ 16/ 17 1013.5S
S APLCHCLA/42036 1350            85 85  220/ 12/ 14 1014.0R
WVE H/P(F/S)=  3/ 4


$$




USA.gov is the U.S. government's official web portal to all federal, state and local government web resources and services.